EHI
10 10 12 11 7 4 2 3 5 6 5 2 0 0 0 0 0 0 0 0 0 1 0 0 0 0 1 1 1 1 0 0 0 0 0 0 0 0 0 0 0 0 0
11 11 12 10 7 5 4 3 4 6 5 3 1 0 0 0 0 0 0 0 0 1 0 0 0 0 1 1 0 0 0 0 0 0 0 0 0 0 0 0 0 0 0
11 9 10 10 8 6 6 5 4 5 5 4 2 1 0 0 0 0 0 1 1 1 0 0 0 0 0 0 0 0 0 0 0 0 0 0 0 0 0 0 0 0 0
10 8 9 12 10 7 7 6 5 5 4 4 4 3 1 0 0 0 0 1 1 1 1 1 0 0 0 0 0 0 0 0 0 0 0 0 0 0 0 0 0 0 0
9 8 12 17 14 9 9 7 5 4 4 3 4 3 2 0 0 1 1 1 1 1 2 1 0 0 0 0 0 0 0 0 0 0 0 0 0 0 0 0 0 0 0
10 9 13 19 17 11 10 8 5 2 2 2 1 1 1 0 1 2 3 2 2 2 2 1 0 0 0 0 0 0 0 0 0 0 0 0 0 0 0 0 0 0 0
10 8 10 15 16 13 11 9 5 2 1 1 0 1 1 1 2 2 3 3 3 2 1 0 0 0 0 0 0 0 0 0 0 0 0 0 0 0 0 0 0 0 0
10 8 7 9 11 11 10 8 5 2 1 0 0 1 1 2 3 2 1 2 1 1 0 0 0 0 0 0 0 0 0 0 0 0 0 0 0 0 0 0 0 0 0
12 11 7 5 5 6 6 5 4 3 1 0 0 1 2 3 2 1 0 0 0 0 0 0 0 0 0 0 0 0 0 0 0 0 0 0 0 0 0 0 0 0 0
13 11 7 3 1 1 1 1 2 2 1 0 0 0 1 2 1 0 0 0 0 0 0 0 0 0 0 0 0 0 0 0 0 0 0 0 0 0 0 0 0 0 0
8 7 6 3 1 0 0 0 0 0 0 0 0 0 1 1 1 0 0 0 0 0 0 0 0 0 0 0 0 0 0 0 0 0 0 0 0 0 0 0 0 0 0
4 4 4 3 1 0 0 0 0 0 0 0 0 0 0 0 0 0 0 0 0 0 0 0 0 0 0 0 0 0 0 0 0 0 0 0 0 0 0 0 0 0 0
3 3 3 2 1 0 0 0 0 0 0 0 0 0 0 0 0 0 0 0 0 0 0 0 0 0 0 0 0 0 0 0 0 0 0 0 0 0 0 0 0 0 0
2 2 1 1 0 0 0 0 0 0 0 0 0 0 0 0 0 1 0 0 0 0 0 0 0 0 0 0 0 0 0 0 0 0 0 0 0 0 0 0 0 0 0
1 1 1 1 1 1 0 0 0 0 0 0 1 0 0 0 0 0 0 0 0 0 0 0 0 0 0 0 0 0 0 0 0 0 0 0 0 0 0 0 0 0 0
0 1 1 2 2 1 1 1 0 0 0 0 1 1 0 0 0 0 0 0 0 0 0 0 0 0 0 0 0 0 0 0 0 0 0 0 0 0 0 1 0 0 0
0 0 1 1 1 1 1 1 0 0 0 0 1 1 0 0 0 0 0 0 0 0 0 0 0 0 0 0 0 0 0 0 0 0 0 0 0 0 0 0 0 0 0
0 0 0 0 0 0 1 1 0 0 0 0 1 1 0 0 0 0 0 0 0 0 0 0 0 0 0 0 0 0 0 0 0 0 0 0 0 0 0 0 0 0 0
0 0 0 0 0 0 1 1 1 1 0 0 0 0 0 0 0 0 0 0 0 0 0 0 0 0 0 0 0 0 0 0 0 0 0 0 0 0 0 0 0 0 0
0 0 0 0 0 0 1 1 1 1 1 1 0 0 0 0 0 0 0 0 0 0 0 0 0 0 0 0 0 0 0 0 0 0 0 0 0 0 0 0 0 0 0
0 0 0 0 0 0 0 0 1 1 1 1 0 0 0 0 0 0 0 0 0 0 0 0 0 0 0 0 0 0 0 0 0 0 0 0 0 0 0 0 0 0 0
0 0 0 0 0 0 0 0 0 0 1 1 0 0 0 0 0 0 0 0 0 0 0 0 0 0 0 0 0 0 0 0 0 0 0 0 0 0 0 0 0 0 0
0 0 0 0 0 0 0 0 0 0 0 0 0 0 0 0 0 0 0 0 0 0 0 0 0 0 0 0 0 0 0 0 0 0 0 0 0 0 0 0 0 0 0
0 0 0 0 0 0 0 0 0 0 0 0 0 0 0 0 0 0 0 0 0 0 0 0 0 0 0 0 0 0 0 0 0 0 0 0 0 0 0 0 0 0 0
0 0 0 0 0 0 0 0 0 0 0 0 0 0 0 0 0 0 0 0 0 0 0 0 0 0 0 0 0 0 0 0 0 0 0 0 0 0 0 0 0 0 0
0 0 0 0 0 0 0 0 0 0 0 0 0 0 0 0 0 0 0 0 0 0 0 0 0 0 0 0 0 0 0 0 0 0 0 0 0 0 0 0 0 0 0
Wind_Speed
8 10 11 11 11 10 10 10 10 9 9 9 9 9 9 9 9 9 9 8 8 9 9 10 10 10 11 12 12 12 12 12 12 12 12 11 11 12 11 11 11 9 13
10 11 12 11 11 10 10 10 10 9 9 8 9 9 9 9 9 8 8 8 9 9 9 9 10 10 10 11 11 11 11 10 10 10 9 9 10 11 12 12 12 8 12
11 12 11 11 10 10 10 10 10 9 9 9 8 9 9 9 9 8 8 8 8 9 9 9 9 10 10 10 10 9 9 8 7 5 5 5 7 11 12 12 11 12 12
10 10 10 11 10 10 10 10 10 9 9 9 8 9 9 9 8 8 8 8 8 8 9 9 10 10 10 9 9 8 7 5 3 1 2 5 5 10 11 11 11 12 12
9 9 10 12 11 10 10 10 10 9 9 9 8 8 8 8 9 9 9 9 9 9 9 10 10 10 9 9 8 6 5 2 2 2 4 6 5 9 10 10 11 11 11
8 8 10 11 11 10 9 9 9 9 9 8 8 8 8 8 9 9 9 9 9 10 10 10 9 9 8 8 7 5 3 2 2 2 5 5 4 9 10 10 10 10 10
7 8 9 11 10 10 9 9 9 9 9 9 8 8 7 8 9 9 9 9 9 9 9 9 9 8 7 7 6 4 3 3 2 4 5 5 5 9 10 9 10 10 10
7 7 8 10 10 9 9 9 8 9 9 8 8 7 7 7 8 9 8 9 9 9 8 8 8 7 7 6 5 3 3 4 3 5 5 4 7 10 10 9 10 10 10
7 7 7 7 7 8 8 8 8 8 8 8 7 7 7 7 7 8 8 8 8 8 7 7 7 7 6 5 4 3 3 4 3 3 5 4 7 9 9 9 9 9 9
5 6 6 6 6 5 6 7 7 7 7 7 7 6 6 6 7 7 7 7 7 7 6 6 6 6 6 5 4 2 2 3 2 4 3 5 8 9 9 8 9 8 8
5 5 5 5 5 5 5 7 7 7 7 7 6 7 6 4 4 5 6 7 6 6 6 6 6 6 5 4 2 1 1 1 2 3 3 7 8 8 8 8 7 8 8
5 5 4 4 4 4 4 5 4 5 5 5 4 5 3 3 3 5 7 7 7 6 6 6 5 5 4 2 1 1 0 1 3 3 4 7 7 7 8 7 7 7 8
5 5 5 5 4 3 2 3 2 2 3 4 4 4 3 3 3 3 3 4 4 4 3 4 4 2 1 1 1 1 0 2 2 3 3 7 6 7 7 7 7 7 7
6 5 4 5 4 3 3 3 3 2 2 3 3 4 3 2 3 3 3 3 3 2 3 2 2 2 2 2 2 1 2 2 3 2 3 6 5 6 6 6 6 6 6
6 6 5 5 4 4 3 3 3 3 3 3 3 2 3 3 3 3 3 3 3 2 3 2 2 2 2 2 2 2 3 3 3 3 3 5 5 5 6 6 5 6 5
6 6 5 5 5 4 4 3 3 3 3 3 3 3 3 3 3 3 3 3 3 2 2 2 2 2 1 1 2 2 2 2 3 4 3 4 5 5 5 5 5 5 5
5 5 5 5 5 5 4 4 3 3 3 3 3 3 3 3 3 3 3 3 3 2 3 2 2 2 2 2 2 2 2 3 3 3 4 3 3 4 4 5 5 4 4
5 6 6 5 5 5 4 4 3 3 3 2 3 3 3 3 3 3 3 3 3 3 2 2 2 2 2 2 2 2 2 2 3 3 3 3 2 2 3 4 5 4 4
6 6 6 5 5 5 5 4 3 3 3 3 2 3 3 4 4 3 3 3 4 3 2 2 2 2 2 2 2 2 2 2 2 3 3 3 3 3 2 4 5 4 4
5 5 6 6 6 5 4 3 3 3 3 3 3 3 3 3 4 4 3 3 4 3 2 2 3 3 3 3 3 2 2 1 1 2 2 2 3 3 3 3 2 2 3
5 5 6 6 6 5 4 4 4 3 3 3 3 3 3 4 4 4 3 4 3 3 3 3 3 3 3 3 3 2 2 2 2 1 1 2 2 2 2 2 2 2 1
6 6 6 6 6 6 5 4 3 4 3 3 3 3 4 4 4 4 5 4 4 3 4 4 4 3 2 3 3 2 1 1 1 0 1 1 1 1 1 1 2 2 2
7 7 6 6 6 6 5 4 3 3 2 3 3 3 4 4 4 4 5 4 4 4 4 4 5 4 4 2 2 3 3 3 1 1 1 1 1 1 1 1 1 2 2
7 6 6 6 6 5 6 5 6 5 4 4 4 3 4 4 5 5 5 5 5 4 4 5 4 4 5 4 2 1 1 3 3 1 1 1 2 1 1 1 1 1 2
6 6 5 6 6 6 6 6 6 4 3 3 4 5 4 4 4 5 5 5 5 4 5 5 5 4 4 4 3 2 1 1 2 2 2 1 1 2 2 2 2 1 2
5 6 5 6 6 6 6 6 6 6 5 5 5 5 4 3 3 4 5 5 5 4 5 5 5 5 4 4 3 2 2 2 2 2 2 2 2 2 2 2 2 2 2
Wind_Direction
120 130 136 135 132 130 128 127 125 122 121 119 123 122 118 115 114 111 108 108 107 104 103 100 96 93 88 85 83 81 81 81 82 80 75 73 77 78 74 73 73 67 71
123 130 135 134 135 133 131 129 126 122 120 119 120 124 123 121 120 118 114 115 113 106 103 103 102 97 93 90 87 86 85 86 90 90 85 77 74 75 73 71 76 77 75
125 130 137 133 136 135 133 132 129 127 123 118 119 122 127 126 124 123 118 113 110 105 101 103 104 99 96 94 91 89 90 92 94 98 99 95 83 79 79 79 79 79 78
126 131 138 136 136 138 137 136 133 131 127 123 121 121 124 126 126 124 122 115 108 104 102 100 99 97 97 95 93 92 93 90 71 48 103 97 90 86 83 81 81 80 77
123 128 133 138 138 137 139 139 137 136 133 127 123 121 123 125 122 118 114 109 104 100 101 99 97 96 98 100 99 99 94 64 355 18 73 81 84 93 90 85 82 80 78
121 123 133 140 141 138 136 140 142 141 138 135 130 128 127 127 124 117 110 106 102 100 100 99 99 98 98 100 101 101 87 12 342 55 76 81 86 99 95 91 87 84 83
123 124 138 140 143 142 139 138 143 143 143 141 139 138 134 129 125 119 114 109 108 106 104 102 100 98 98 99 98 88 42 351 42 64 75 78 94 101 98 97 93 90 87
125 127 137 141 142 142 143 142 145 147 146 145 144 142 137 131 129 123 119 117 116 113 111 107 103 102 102 98 93 73 18 354 74 80 78 81 99 97 96 98 96 93 89
125 131 138 146 146 146 146 145 142 146 147 147 143 139 133 128 126 126 124 124 122 119 115 113 110 106 104 99 89 58 8 15 36 70 88 86 99 98 96 94 94 94 90
130 137 142 148 148 149 149 150 150 149 149 150 147 141 136 132 127 122 122 122 124 124 120 118 118 114 106 100 91 49 2 13 66 71 80 94 100 101 98 95 93 94 93
144 143 146 149 148 151 159 160 157 156 161 158 155 151 145 143 140 132 133 127 126 127 126 126 124 118 109 103 97 22 5 67 87 81 82 98 100 101 100 99 97 95 95
161 157 155 151 147 155 164 154 165 168 166 168 158 160 163 155 150 143 140 138 133 130 132 135 133 129 123 132 152 276 324 92 84 85 89 99 103 105 105 102 98 96 94
168 166 157 149 147 150 145 152 155 156 159 167 165 167 162 153 138 131 136 139 137 141 138 139 138 141 141 135 142 184 26 76 85 86 94 104 107 112 110 107 104 101 95
169 167 158 149 149 155 154 159 153 149 155 159 165 161 156 148 142 142 141 149 148 153 141 143 154 150 147 148 153 157 100 86 88 86 94 105 111 117 116 115 113 109 104
169 167 163 153 153 157 162 165 154 151 153 151 148 148 147 147 153 150 148 146 153 151 149 155 159 152 151 153 149 130 115 109 107 97 91 95 101 113 121 119 119 118 113
173 168 164 162 164 162 164 159 158 151 145 139 136 143 145 145 149 147 146 146 146 146 147 152 150 131 123 105 98 93 98 112 115 115 109 91 89 98 110 118 119 117 116
178 168 165 167 162 164 163 158 159 152 143 139 142 147 140 138 147 145 144 138 140 140 134 125 123 110 102 89 83 76 70 83 101 109 111 108 97 90 101 113 116 113 113
174 170 169 171 162 162 156 159 159 150 146 144 147 151 154 148 144 135 142 146 144 137 134 128 127 111 106 95 78 67 66 72 90 95 97 106 107 97 92 108 107 108 104
171 164 165 163 161 159 156 159 156 149 152 154 151 155 162 157 150 138 143 145 138 136 137 140 125 127 121 107 92 72 61 59 76 89 95 101 106 109 102 99 101 102 105
168 165 164 163 161 157 152 148 152 149 153 156 159 163 166 162 153 141 140 138 135 138 142 141 141 130 128 123 103 71 56 58 62 82 105 103 102 108 115 114 107 100 105
167 166 164 165 164 158 157 160 164 168 165 163 163 163 165 161 158 151 149 148 145 151 159 150 135 132 127 120 100 76 26 32 68 78 74 89 85 86 101 114 120 115 108
176 173 167 168 168 165 166 165 161 156 164 169 162 164 165 163 166 162 157 160 158 157 162 158 142 141 151 147 136 131 141 342 333 54 84 104 106 92 96 110 117 116 122
178 178 177 172 168 164 160 153 146 138 142 158 166 170 171 167 170 167 166 164 167 164 169 170 162 160 166 182 167 152 156 186 204 248 213 162 159 140 171 155 140 132 129
176 171 172 168 164 163 159 163 165 169 175 177 168 167 168 171 174 172 171 170 171 169 168 175 171 168 166 179 205 221 160 148 155 178 247 217 199 190 196 203 185 169 147
162 161 169 164 162 164 166 171 173 171 174 161 158 162 166 171 174 174 174 174 174 175 176 175 172 174 176 178 180 183 192 106 131 145 197 220 242 228 205 196 195 197 184
151 156 163 161 165 168 168 172 178 173 170 167 169 169 171 170 173 177 178 178 176 176 182 183 181 182 183 180 184 179 172 170 184 162 173 185 215 238 227 208 198 201 202